DW2363 Weather Reports


time (UTC)temp
F
wind
direction
speed
knots
gust
knots
rain 1hr
in
rain 24hr
in
rain mn
in
humidity
%
barometer
mb
20260901133032 64 86 8.7 10.4 0.00 0.00 0.00 53 1014.6
20260901132532 64 93 7.8 9.6 0.00 0.00 0.00 53 1014.8
20260901132032 64 103 7.8 9.6 0.00 0.00 0.00 57 1014.8
20260901131532 64 105 7.8 9.6 0.00 0.00 0.00 61 1014.8
20260901131032 64 108 7.8 9.6 0.00 0.00 0.00 51 1014.6
20260901130532 64 106 8.7 9.6 0.00 0.00 0.00 52 1014.6
20260901130032 65 107 7.8 9.6 0.00 0.00 0.00 42 1014.8
20260901125530 65 105 7.8 9.6 0.00 0.00 0.00 37 1014.6
20260901125033 65 106 8.7 10.4 0.00 0.00 0.00 36 1014.5
20260901125029 65 108 8.7 9.6 0.00 0.00 0.00 36 1014.5
20260901124030 65 103 8.7 10.4 0.00 0.00 0.00 36 1014.5
20260901123531 65 113 8.7 10.4 0.00 0.00 0.00 31 1014.5
20260901123032 65 113 8.7 10.4 0.00 0.00 0.00 30 1014.4
20260901122530 65 111 8.7 10.4 0.00 0.00 0.00 31 1014.4
20260901122030 65 115 7.8 9.6 0.00 0.00 0.00 31 1014.5
20260901121530 65 131 7.8 9.6 0.00 0.00 0.00 33 1014.4
20260901121138 64 146 5.2 8.7 0.00 0.00 0.00 26 1014.4
20260901121033 65 130 7.0 9.6 0.00 0.00 0.00 23 1014.4
20260901121029 65 132 7.8 9.6 0.00 0.00 0.00 30 1014.3
20260901120136 64 155 6.1 8.7 0.00 0.00 0.00 31 1014.4
20260901115029 64 162 6.1 7.8 0.00 0.00 0.00 30 1014.4
20260901114530 64 168 6.1 8.7 0.00 0.00 0.00 34 1014.4
20260901114030 64 173 6.1 8.7 0.00 0.00 0.00 30 1014.4
20260901113530 64 173 7.0 10.4 0.00 0.00 0.00 38 1014.5
20260901113030 65 161 7.0 10.4 0.00 0.00 0.00 30 1014.5
20260901112527 65 167 7.8 12.2 0.00 0.00 0.00 28 1014.5
20260901112028 65 149 7.8 12.2 0.00 0.00 0.00 17 1014.4
20260901111530 65 140 6.1 10.4 0.00 0.00 0.00 19 1014.4
20260901111526 66 157 7.0 9.6 0.00 0.00 0.00 24 1014.5
20260901110526 66 157 7.8 10.4 0.00 0.00 0.00 17 1014.5
20260901110025 66 142 7.8 10.4 0.00 0.00 0.00 19 1014.5
20260901105528 66 142 8.7 11.3 0.00 0.00 0.00 17 1014.5
20260901105524 66 146 7.8 11.3 0.00 0.00 0.00 20 1014.5
20260901104522 67 138 9.6 11.3 0.00 0.00 0.00 14 1014.5
20260901104023 66 130 7.8 11.3 0.00 0.00 0.00 12 1014.5
20260901103526 66 129 7.0 8.7 0.00 0.00 0.00 22 1014.6
20260901103522 66 134 6.1 8.7 0.00 0.00 0.00 13 1014.5
20260901102522 66 136 7.8 8.7 0.00 0.00 0.00 14 1014.6
20260901102022 65 132 6.1 8.7 0.00 0.00 0.00 14 1014.6
20260901101523 65 132 5.2 8.7 0.00 0.00 0.00 19 1014.6
20260901101022 64 136 6.1 8.7 0.00 0.00 0.00 32 1014.8
20260901100526 63 140 7.0 9.6 0.00 0.00 0.00 39 1014.8
20260901100522 64 138 7.0 9.6 0.00 0.00 0.00 34 1014.8
20260901095522 63 126 7.0 11.3 0.00 0.00 0.00 50 1014.8
20260901095131 63 140 7.8 10.4 0.00 0.00 0.00 56 1014.8
20260901095022 63 148 7.8 11.3 0.00 0.00 0.00 53 1014.8
20260901094526 63 140 6.1 10.4 0.00 0.00 0.00 59 1014.6
20260901094522 63 145 6.1 10.4 0.00 0.00 0.00 57 1014.8
20260901093022 64 138 7.8 10.4 0.00 0.00 0.00 55 1014.9
20260901092522 64 139 7.8 12.2 0.00 0.00 0.00 50 1014.6
20260901092022 65 130 7.8 12.2 0.00 0.00 0.00 47 1014.6
20260901091522 65 119 8.7 12.2 0.00 0.00 0.00 47 1014.6
20260901091026 66 123 8.7 12.2 0.00 0.00 0.00 34 1014.8
20260901091022 66 121 8.7 12.2 0.00 0.00 0.00 36 1014.6
20260901090027 66 119 8.7 11.3 0.00 0.00 0.00 35 1014.8
20260901085522 66 116 8.7 10.4 0.00 0.00 0.00 31 1015.0
20260901085022 67 121 7.0 10.4 0.00 0.00 0.00 32 1014.9
20260901084522 67 125 5.2 9.6 0.00 0.00 0.00 26 1015.0
20260901084026 67 128 5.2 8.7 0.00 0.00 0.00 17 1015.0
20260901084022 67 130 6.1 8.7 0.00 0.00 0.00 20 1015.0
20260901083630 67 130 6.1 8.7 0.00 0.00 0.00 22 1014.9
20260901082519 67 128 6.1 8.7 0.00 0.00 0.00 21 1015.0
20260901082019 66 132 6.1 9.6 0.00 0.00 0.00 17 1014.9
20260901081519 66 122 7.0 9.6 0.00 0.00 0.00 26 1015.0
20260901081019 66 121 6.1 8.7 0.00 0.00 0.00 20 1015.1
20260901080519 66 128 6.1 8.7 0.00 0.00 0.00 23 1015.0
20260901080019 66 115 7.8 9.6 0.00 0.00 0.00 23 1015.1
20260901075520 66 121 7.0 9.6 0.00 0.00 0.00 24 1015.0
20260901075025 67 106 5.2 9.6 0.00 0.00 0.00 25 1015.1
20260901075020 67 115 6.1 7.8 0.00 0.00 0.00 24 1015.1
20260901074018 67 111 4.3 9.6 0.00 0.00 0.00 23 1015.2
20260901073517 67 123 6.1 9.6 0.00 0.00 0.00 24 1015.2
20260901073018 67 126 7.8 9.6 0.00 0.00 0.00 25 1015.2
20260901072517 67 117 7.0 9.6 0.00 0.00 0.00 28 1015.2
20260901072017 67 103 5.2 8.7 0.00 0.00 0.00 39 1015.2
20260901071516 67 94 4.3 7.0 0.00 0.00 0.00 47 1015.1
20260901071016 67 90 4.3 7.0 0.00 0.00 0.00 53 1015.1
20260901070515 68 93 6.1 7.8 0.00 0.00 0.00 55 1015.1
20260901070017 68 95 6.1 7.8 0.00 0.00 0.00 54 1015.1
20260901070013 68 92 5.2 7.0 0.00 0.00 0.00 54 1015.1
20260901065013 68 101 4.3 7.0 0.00 0.00 0.00 46 1015.0
20260901064511 68 105 4.3 7.0 0.00 0.00 0.00 48 1015.0
20260901064012 69 110 5.2 7.8 0.00 0.00 0.00 43 1015.0
20260901063512 68 107 5.2 7.0 0.00 0.00 0.00 40 1014.9
20260901063508 69 109 5.2 7.8 0.00 0.00 0.00 41 1014.9
20260901062509 69 105 6.1 7.8 0.00 0.00 0.00 44 1014.9
20260901062007 69 104 5.2 7.8 0.00 0.00 0.00 42 1014.9
20260901061507 69 101 3.5 7.8 0.00 0.00 0.00 38 1014.8
20260901061006 69 112 3.5 6.1 0.00 0.00 0.00 39 1014.8
20260901060509 70 134 3.5 6.1 0.00 0.00 0.00 29 1014.8
20260901060505 70 150 4.3 6.1 0.00 0.00 0.00 27 1014.9
20260901055502 71 156 4.3 6.1 0.00 0.00 0.00 26 1014.8
20260901055007 73 159 6.1 7.8 0.00 0.00 0.00 9 1014.6
20260901055002 72 159 5.2 7.8 0.00 0.00 0.00 24 1014.8
20260901054003 73 192 6.1 8.7 0.00 0.00 0.00 1 1014.6
20260901053506 72 190 5.2 7.0 0.00 0.00 0.00 1 1014.6
20260901053502 72 184 6.1 8.7 0.00 0.00 0.00 2 1014.5
20260901052503 71 194 4.3 6.1 0.00 0.00 0.00 2 1014.6
20260901052004 71 164 3.5 4.3 0.00 0.00 0.00 4 1014.8
20260901051503 71 158 2.6 5.2 0.00 0.00 0.00 5 1014.8
20260901051002 72 152 3.5 5.2 0.00 0.00 0.00 14 1014.8
20260901050502 72 167 2.6 4.3 0.00 0.00 0.00 6 1014.6
20260901050003 72 180 3.5 5.2 0.00 0.00 0.00 3 1014.6
20260901045507 72 175 5.2 6.1 0.00 0.00 0.00 6 1014.6
20260901045503 72 178 3.5 6.1 0.00 0.00 0.00 5 1014.6
20260901045111 72 188 6.1 6.1 0.00 0.00 0.00 2 1014.6
20260901044002 73 188 6.1 7.8 0.00 0.00 0.00 2 1014.6
20260901043502 73 188 6.1 7.8 0.00 0.00 0.00 1 1014.6
20260901043003 73 201 6.1 7.8 0.00 0.00 0.00 1 1014.5
20260901042503 74 221 6.1 7.8 0.00 0.00 0.00 1 1014.4
20260901042007 74 211 6.1 7.8 0.00 0.00 0.00 1 1014.3
20260901042003 74 215 6.1 7.8 0.00 0.00 0.00 1 1014.4
20260901041002 74 216 6.1 7.8 0.00 0.00 0.00 1 1014.3
20260901040502 74 210 6.1 7.8 0.00 0.00 0.00 1 1014.3
20260901040003 73 211 5.2 7.0 0.00 0.00 0.00 1 1014.2
20260901035502 73 215 5.2 6.1 0.00 0.00 0.00 1 1014.1
20260901035002 73 225 5.2 6.1 0.00 0.00 0.00 1 1014.1
20260901034502 73 221 5.2 6.1 0.00 0.00 0.00 1 1014.1
20260901034003 73 214 5.2 6.1 0.00 0.00 0.00 1 1014.1
20260901033508 73 219 4.3 6.1 0.00 0.00 0.00 3 1013.8
20260901033502 73 219 5.2 6.1 0.00 0.00 0.00 1 1013.9
20260901032502 73 213 5.2 6.1 0.00 0.00 0.00 8 1013.9
20260901032006 73 205 5.2 7.0 0.00 0.00 0.00 6 1013.9
20260901032002 73 211 5.2 7.0 0.00 0.00 0.00 7 1013.9
20260901031003 73 213 5.2 6.1 0.00 0.00 0.00 5 1013.8
20260901030502 74 224 4.3 6.1 0.00 0.00 0.00 4 1013.8
20260901030002 74 227 4.3 7.0 0.00 0.00 0.00 4 1013.8
20260901025502 73 238 5.2 7.8 0.00 0.00 0.00 2 1013.8
20260901025006 73 248 6.1 8.7 0.00 0.00 0.00 4 1013.7
20260901025002 73 261 5.2 7.8 0.00 0.00 0.00 2 1013.7
20260901024002 73 228 7.0 8.7 0.00 0.00 0.00 3 1013.7
20260901023506 73 252 7.0 9.6 0.00 0.00 0.00 10 1013.8
20260901023502 73 252 7.0 9.6 0.00 0.00 0.00 5 1013.7
20260901023111 72 241 7.0 9.6 0.00 0.00 0.00 10 1013.7
20260901022002 72 229 6.1 9.6 0.00 0.00 0.00 10 1013.7
20260901021507 72 223 6.1 7.8 0.00 0.00 0.00 16 1013.7
20260901021502 72 230 6.1 7.0 0.00 0.00 0.00 13 1013.7
20260901021110 73 221 6.1 8.7 0.00 0.00 0.00 18 1013.7
20260901020609 73 215 6.1 8.7 0.00 0.00 0.00 16 1013.7
20260901015502 73 219 7.0 8.7 0.00 0.00 0.00 28 1013.7
20260901015002 73 204 7.0 8.7 0.00 0.00 0.00 21 1013.7
20260901014500 73 197 7.0 9.6 0.00 0.00 0.00 24 1013.7
20260901014000 73 202 6.1 9.6 0.00 0.00 0.00 17 1013.7
20260901013500 73 219 6.1 8.7 0.00 0.00 0.00 24 1013.7
20260901013000 73 205 6.1 8.7 0.00 0.00 0.00 18 1013.7
20260901012459 73 203 6.1 8.7 0.00 0.00 0.00 28 1013.7
20260901012000 73 199 7.0 8.7 0.00 0.00 0.00 31 1013.7
20260901011500 73 202 7.0 8.7 0.00 0.00 0.00 29 1013.7
20260901011001 73 197 6.1 8.7 0.00 0.00 0.00 32 1013.7
20260901010501 73 200 6.1 7.8 0.00 0.00 0.00 39 1013.8
20260901005959 73 224 6.1 8.7 0.00 0.00 0.00 41 1013.8
20260901005500 73 206 6.1 8.7 0.00 0.00 0.00 35 1013.8
20260901005000 73 200 6.1 9.6 0.00 0.00 0.00 39 1013.8
20260901004500 73 215 6.1 9.6 0.00 0.00 0.00 32 1013.8
20260901004000 74 221 6.1 8.7 0.00 0.00 0.00 30 1013.8
20260901003500 73 203 6.1 8.7 0.00 0.00 0.00 34 1013.9
20260901002959 73 203 6.1 7.8 0.00 0.00 0.00 27 1013.8
20260901002506 72 216 6.1 8.7 0.00 0.00 0.00 39 1013.9
20260901002501 72 232 6.1 7.8 0.00 0.00 0.00 40 1013.8
20260901001500 72 219 6.1 8.7 0.00 0.00 0.00 49 1013.9
20260901000959 72 214 7.0 9.6 0.00 0.00 0.00 43 1013.9
20260901000505 73 198 6.1 9.6 0.00 0.00 0.00 37 1014.0
20260901000500 73 216 7.0 9.6 0.00 0.00 0.00 52 1014.0
20260901000108 73 213 6.1 9.6 0.00 0.00 0.00 43 1014.0
20260831234959 73 216 6.1 9.6 0.00 0.00 0.00 53 1013.9
20260831234459 74 234 6.1 8.7 0.00 0.00 0.00 59 1013.9
20260831234000 74 188 5.2 8.7 0.00 0.00 0.00 48 1014.0
20260831233505 74 216 5.2 8.7 0.00 0.00 0.00 51 1014.0
20260831233500 74 202 5.2 8.7 0.00 0.00 0.00 51 1014.0
20260831232500 74 177 5.2 8.7 0.00 0.00 0.00 56 1014.0
20260831232000 74 189 5.2 8.7 0.00 0.00 0.00 50 1014.0
20260831231500 74 196 5.2 8.7 0.00 0.00 0.00 50 1014.0
20260831231003 74 185 5.2 8.7 0.00 0.00 0.00 58 1014.0
20260831230959 74 171 5.2 7.8 0.00 0.00 0.00 55 1014.1
20260831225957 73 183 5.2 7.8 0.00 0.00 0.00 45 1014.0
20260831225457 74 184 4.3 8.7 0.00 0.00 0.00 60 1014.1
20260831225000 74 167 5.2 8.7 0.00 0.00 0.00 60 1014.1
20260831224955 74 180 5.2 8.7 0.00 0.00 0.00 59 1014.1
20260831223955 74 189 5.2 8.7 0.00 0.00 0.00 68 1014.2
20260831223455 75 161 5.2 8.7 0.00 0.00 0.00 68 1014.1
20260831222956 74 168 5.2 8.7 0.00 0.00 0.00 71 1014.2
20260831222456 73 207 5.2 8.7 0.00 0.00 0.00 69 1014.2
20260831221956 73 193 4.3 8.7 0.00 0.00 0.00 71 1014.3
20260831221456 73 166 5.2 8.7 0.00 0.00 0.00 71 1014.4
20260831220955 73 204 5.2 8.7 0.00 0.00 0.00 70 1014.4
20260831220455 72 225 5.2 8.7 0.00 0.00 0.00 68 1014.5
20260831215955 72 211 5.2 9.6 0.00 0.00 0.00 71 1014.5
20260831215500 74 193 6.1 9.6 0.00 0.00 0.00 70 1014.6
20260831215456 73 208 6.1 9.6 0.00 0.00 0.00 71 1014.6
20260831214456 74 190 6.1 9.6 0.00 0.00 0.00 71 1014.6
20260831213956 75 200 6.1 9.6 0.00 0.00 0.00 70 1014.8
20260831213456 75 173 5.2 10.4 0.00 0.00 0.00 70 1014.6
20260831212959 74 178 4.3 10.4 0.00 0.00 0.00 70 1014.6
20260831212955 74 209 3.5 7.0 0.00 0.00 0.00 66 1014.8
20260831211956 74 168 4.3 7.0 0.00 0.00 0.00 70 1014.6
20260831211952 73 180 4.3 9.6 0.00 0.00 0.00 74 1014.8
20260831210952 73 197 5.2 9.6 0.00 0.00 0.00 75 1014.9
20260831210454 72 196 5.2 10.4 0.00 0.00 0.00 74 1014.9
20260831210450 72 210 5.2 10.4 0.00 0.00 0.00 75 1014.9
20260831205449 72 204 4.3 9.6 0.00 0.00 0.00 75 1014.9
20260831204949 72 215 4.3 9.6 0.00 0.00 0.00 74 1014.9
20260831204449 71 232 5.2 9.6 0.00 0.00 0.00 76 1014.9
20260831203947 71 163 5.2 8.7 0.00 0.00 0.00 76 1014.9
20260831203447 72 206 5.2 8.7 0.00 0.00 0.00 77 1014.9
20260831202947 71 192 4.3 8.7 0.00 0.00 0.00 78 1015.0
20260831202447 71 160 4.3 8.7 0.00 0.00 0.00 79 1014.9
20260831201947 72 215 5.2 8.7 0.00 0.00 0.00 75 1015.0
20260831201445 73 174 5.2 8.7 0.00 0.00 0.00 76 1015.0
20260831200945 73 216 5.2 9.6 0.00 0.00 0.00 77 1015.0
20260831200446 73 188 5.2 9.6 0.00 0.00 0.00 76 1015.0
20260831195945 73 177 5.2 8.7 0.00 0.00 0.00 77 1015.0
20260831195446 73 202 5.2 8.7 0.00 0.00 0.00 77 1015.1
20260831194947 73 175 5.2 9.6 0.00 0.00 0.00 77 1015.1
20260831194443 72 202 5.2 9.6 0.00 0.00 0.00 77 1015.2
20260831193943 72 171 5.2 8.7 0.00 0.00 0.00 75 1015.2
20260831193445 72 175 4.3 7.8 0.00 0.00 0.00 77 1015.2
20260831192944 72 209 5.2 8.7 0.00 0.00 0.00 77 1015.3
20260831192444 72 182 5.2 8.7 0.00 0.00 0.00 77 1015.3
20260831191942 72 173 6.1 9.6 0.00 0.00 0.00 78 1015.3
20260831191442 71 194 5.2 9.6 0.00 0.00 0.00 78 1015.4
20260831190942 72 188 4.3 7.8 0.00 0.00 0.00 77 1015.4
20260831190446 71 182 3.5 7.8 0.00 0.00 0.00 80 1015.3
20260831190442 72 184 3.5 7.0 0.00 0.00 0.00 80 1015.4
20260831185442 71 189 3.5 7.8 0.00 0.00 0.00 80 1015.4
20260831184942 71 207 3.5 7.8 0.00 0.00 0.00 78 1015.3
20260831184442 71 171 4.3 7.8 0.00 0.00 0.00 79 1015.4
20260831183942 72 218 4.3 7.8 0.00 0.00 0.00 78 1015.3
20260831183442 73 194 4.3 7.8 0.00 0.00 0.00 77 1015.3
20260831182945 73 136 3.5 7.0 0.00 0.00 0.00 75 1015.3
20260831182939 73 153 4.3 7.0 0.00 0.00 0.00 76 1015.3
20260831182546 73 139 2.6 6.1 0.00 0.00 0.00 77 1015.4
20260831182047 72 159 2.6 7.0 0.00 0.00 0.00 80 1015.4
20260831180939 71 163 4.3 7.8 0.00 0.00 0.00 80 1015.4
20260831180444 70 157 3.5 7.0 0.00 0.00 0.00 79 1015.3
20260831180439 71 128 3.5 7.8 0.00 0.00 0.00 80 1015.3
20260831175438 71 150 3.5 7.0 0.00 0.00 0.00 80 1015.2
20260831174939 70 119 3.5 7.0 0.00 0.00 0.00 81 1015.3
20260831174439 71 116 3.5 7.0 0.00 0.00 0.00 80 1015.2
20260831173937 71 102 3.5 7.8 0.00 0.00 0.00 80 1015.2
20260831173443 71 103 3.5 7.0 0.00 0.00 0.00 82 1015.2
20260831173437 71 126 3.5 7.8 0.00 0.00 0.00 81 1015.1
20260831172437 70 169 2.6 7.0 0.00 0.00 0.00 82 1015.1
20260831171936 70 116 1.7 7.0 0.00 0.00 0.00 82 1015.2
20260831171442 71 171 2.6 6.1 0.00 0.00 0.00 82 1015.2
20260831171435 71 209 2.6 6.1 0.00 0.00 0.00 81 1015.2
20260831170433 70 193 2.6 6.1 0.00 0.00 0.00 82 1015.1
20260831165932 70 138 3.5 7.0 0.00 0.00 0.00 82 1015.0
20260831165432 69 167 4.3 7.8 0.00 0.00 0.00 82 1015.0
20260831164933 69 174 3.5 7.8 0.00 0.00 0.00 82 1015.0
20260831164434 69 181 3.5 7.0 0.00 0.00 0.00 81 1014.9
20260831163932 69 173 3.5 7.0 0.00 0.00 0.00 81 1014.8
20260831163432 69 125 4.3 7.0 0.00 0.00 0.00 81 1014.8
20260831162933 69 139 4.3 7.0 0.00 0.00 0.00 80 1014.8
20260831162431 69 150 5.2 7.0 0.00 0.00 0.00 79 1014.6
20260831161931 69 126 4.3 7.8 0.00 0.00 0.00 79 1014.8
20260831161431 69 136 3.5 7.8 0.00 0.00 0.00 79 1014.5
20260831160930 69 97 4.3 7.0 0.00 0.00 0.00 80 1014.6
20260831160431 69 98 4.3 7.0 0.00 0.00 0.00 80 1014.5
20260831155934 69 109 3.5 7.0 0.00 0.00 0.00 79 1014.5
20260831155930 69 116 4.3 7.0 0.00 0.00 0.00 80 1014.5
20260831155538 69 105 4.3 7.0 0.00 0.00 0.00 79 1014.5
20260831154435 68 123 4.3 7.0 0.00 0.00 0.00 79 1014.5
20260831154431 69 147 4.3 7.0 0.00 0.00 0.00 79 1014.6
20260831154039 68 93 3.5 7.0 0.00 0.00 0.00 79 1014.5
20260831152930 68 96 4.3 7.0 0.00 0.00 0.00 78 1014.5
20260831152431 68 80 4.3 7.0 0.00 0.00 0.00 77 1014.5
20260831151930 68 121 3.5 6.1 0.00 0.00 0.00 76 1014.4
20260831151431 68 96 4.3 7.8 0.00 0.00 0.00 76 1014.3
20260831150930 67 44 5.2 7.8 0.00 0.00 0.00 78 1014.3
20260831150430 67 73 5.2 7.8 0.00 0.00 0.00 77 1014.2
20260831145931 67 85 3.5 7.0 0.00 0.00 0.00 79 1014.1
20260831145430 67 75 3.5 5.2 0.00 0.00 0.00 81 1014.2
20260831144930 67 84 2.6 6.1 0.00 0.00 0.00 79 1014.2
20260831144430 67 75 2.6 6.1 0.00 0.00 0.00 77 1014.2
20260831143928 67 74 2.6 6.1 0.00 0.00 0.00 77 1014.2
20260831143427 68 84 3.5 6.1 0.00 0.00 0.00 74 1014.2
20260831142926 68 96 2.6 6.1 0.00 0.00 0.00 73 1014.1
20260831142426 67 104 1.7 3.5 0.00 0.00 0.00 74 1014.0
20260831141928 67 104 1.7 3.5 0.00 0.00 0.00 74 1013.9
20260831141924 67 104 1.7 3.5 0.00 0.00 0.00 74 1013.9
20260831140928 67 104 3.5 6.1 0.00 0.00 0.00 73 1013.8
20260831140924 67 104 1.7 3.5 0.00 0.00 0.00 73 1013.8
20260831135923 67 104 3.5 6.1 0.00 0.00 0.00 72 1013.6
20260831135422 66 104 2.6 6.1 0.00 0.00 0.00 74 1013.7
20260831134922 66 104 2.6 5.2 0.00 0.00 0.00 75 1013.6
20260831134422 66 104 2.6 5.2 0.00 0.00 0.00 72 1013.5
20260831133922 66 104 3.5 5.2 0.00 0.00 0.00 74 1013.5